Weather Roundup
Issued by NWS

Home | Current Version | Previous Version | Graphics & Text | Print | Product List | Glossary Off
Versions: 1 2 3 4 5 6 7 8 9 10 11 12 13 14 15 16 17 18 19 20 21 22 23 24 25 26 27 28 29 30 31 32 33 34 35 36 37 38 39 40 41 42 43 44 45 46 47 48 49 50

000
NZUS93 KARX 192010
HRRWXR

CURRENT HOURLY OBSERVATIONS ACROSS
MUCH OF THE UPPER MISSISSIPPI VALLEY
NATIONAL WEATHER SERVICE LA CROSSE WI
200 PM CST FRI DEC 19 2014


...SOUTHEAST MINNESOTA...


CITY           SKY/WX    TMP DP  RH WIND       PRES   REMARKS
ROCHESTER      CLOUDY    28  21  75 SE9       30.20F WCI  19
ROCHESTER/MAYO CLOUDY    28  20  72 SE8       30.21F WCI  20
WINONA         CLOUDY    32  23  69 CALM      30.26F
AUSTIN         CLOUDY    28  25  86 S7        30.19F FOG     WCI  21
ALBERT LEA     PTSUNNY   28  27  93 S7        30.18F FOG     WCI  21
DODGE CENTER   CLOUDY    28  25  86 S9        30.19F FOG     WCI  20
PRESTON        CLOUDY    27  21  77 S6        30.21F WCI  21
OWATONNA       MOSUNNY   28  25  86 SE8       30.18F FOG     WCI  20
FARIBAULT      CLOUDY    28  25  86 S6        30.19F FOG     WCI  22
$$

...ELSEWHERE IN MINNESOTA...


CITY           SKY/WX    TMP DP  RH WIND       PRES   REMARKS
MINNEAPOLIS    CLOUDY    27  22  81 SE9       30.20F WCI  18
INTNL FALLS    LGT SNOW  24  19  81 SE8       30.11F WCI  15
DULUTH         FLURRIES  23  19  85 S5        30.16S WCI  17
RED WING       CLOUDY    28  21  74 SE6       30.22F WCI  22
REDWOOD FALLS  CLOUDY    33  28  81 S15       30.12F HAZE    WCI  23
MANKATO        CLOUDY    30  25  80 S10       30.17F WCI  21
WORTHINGTON    CLOUDY    30  27  86 S12       30.11F WCI  21
FAIRMONT       CLOUDY    32  23  69 S12       30.15F WCI  23
$$

...SOUTHWEST WISCONSIN...


CITY           SKY/WX    TMP DP  RH WIND       PRES   REMARKS
LA CROSSE      CLOUDY    30  20  66 S7        30.26F WCI  23
PRAIRIE DU CHI CLOUDY    29  20  68 E3        30.26F
BOSCOBEL       CLOUDY    31  19  61 CALM      30.27F
LONE ROCK      CLOUDY    32  18  56 E3        30.27S
PLATTEVILLE    CLOUDY    29  21  72 CALM      30.25F
FORT MC COY    CLOUDY    29  19  65 CALM      30.26F
CAMP DOUGLAS   CLOUDY    27  25  93 SE5       30.26F WCI  21
VIROQUA        CLOUDY    28  21  76 S5        30.22F WCI  22
WIS DELLS      CLOUDY    24  20  84 CALM      30.26S
$$

...ELSEWHERE IN WISCONSIN...


CITY           SKY/WX    TMP DP  RH WIND       PRES   REMARKS
MILWAUKEE      CLOUDY    31  18  58 SW7       30.27F WCI  24
MADISON        FLURRIES  26  20  77 CALM      30.26F
GREEN BAY      MOSUNNY   30  22  72 W3        30.27F
EAU CLAIRE     CLOUDY    27  19  72 SE7       30.23F WCI  19
BLACK RVR FLS  CLOUDY    29  19  64 E3        30.25F
MEDFORD        CLOUDY    21  20  95 S8        30.22S WCI  12
WAUSAU         PTSUNNY   27  19  72 SW3       30.22S
WIS RAPIDS     CLOUDY    25  19  78 S6        30.27F WCI  18
MARSHFIELD     CLOUDY    24  20  84 S8        30.24S WCI  15
RICE LAKE      FLURRIES  26  21  79 SE6       30.23F WCI  20
$$

...NORTHEAST IOWA...


CITY           SKY/WX    TMP DP  RH WIND       PRES   REMARKS
DECORAH        CLOUDY    28  21  74 SE7       30.22F WCI  21
MASON CITY     CLOUDY    30  26  85 S8        30.21F WCI  22
CHARLES CITY   CLOUDY    30  25  80 SE6       30.22F WCI  24
OELWEIN        CLOUDY    28  21  74 S8        30.24S WCI  20
$$

...ELSEWHERE IN IOWA...


CITY           SKY/WX    TMP DP  RH WIND       PRES   REMARKS
DES MOINES     CLOUDY    33  27  78 SE9       30.23S WCI  25
IOWA CITY      CLOUDY    31  20  63 S5        30.28S WCI  26
FORT DODGE     CLOUDY    32  27  80 S9        30.19F WCI  24
$$

...NORTHERN ILLINOIS...


CITY           SKY/WX    TMP DP  RH WIND       PRES   REMARKS
CHICAGO-OHARE  CLOUDY    31  21  66 NE6       30.25F WCI  25
CHICAGO-MIDWAY CLOUDY    34  23  64 CALM      30.26F
MOLINE         CLOUDY    31  19  61 CALM      30.27S
ROCKFORD       FLURRIES  28  21  75 NW5       30.28F WCI  23
PEORIA         SUNNY     35  20  54 CALM      30.28S
$$

NOTE: "FAIR" INDICATES FEW OR NO CLOUDS BELOW 12,000 FEET WITH NO
SIGNIFICANT WEATHER AND/OR OBSTRUCTIONS TO VISIBILITY. WIND
SPEEDS ARE IN MILES-PER-HOUR.



USA.gov is the U.S. government's official web portal to all federal, state and local government web resources and services.